"2016-06-13 00:00:00",1717851,14.4,325.2,0.684,0.131,2.645,108.7806,21.76,22.93,30.85,0,111.1,13.04,22.59,287.2
"2016-06-13 00:00:30",1717852,13.96,323.4,1.16,0.172,4.239,108.7512,21.69,22.88,31.02,0,111.1,13.04,22.52,285.4
"2016-06-13 00:01:00",1717853,13.91,320.6,0.613,0.14,19.11,108.7226,21.61,22.8,31.49,0,111.1,13.04,22.44,282.6
"2016-06-13 00:01:30",1717854,14.29,320.4,0.505,0.065,-18.86,108.6911,21.53,22.73,32.06,0,111.1,13.04,22.36,282.4
"2016-06-13 00:02:00",1717855,14.24,319.7,0.726,0.195,-8.31,108.6568,21.45,22.65,32.28,0,111.1,13.04,22.27,281.7
"2016-06-13 00:02:30",1717856,13.96,320.5,1.068,0.124,25.15,108.6217,21.35,22.58,32.35,0,111.1,13.04,22.18,282.5
"2016-06-13 00:03:00",1717857,13.96,321.1,0.698,0.211,-30.37,108.588,21.27,22.51,32.61,0,111,13.05,22.09,283.1
"2016-06-13 00:03:30",1717858,14.57,322,1.912,0.31,16.66,108.5526,21.18,22.44,33.51,0,111,13.05,22.00,284.0
"2016-06-13 00:04:00",1717859,15.21,323.2,1.797,0.336,18.86,108.518,21.09,22.37,33.44,0,111,13.05,21.91,285.2
"2016-06-13 00:04:30",1717860,14.65,316.3,4.179,0.369,20.84,108.4781,20.99,22.27,34.05,0,111,13.05,21.81,278.3
"2016-06-13 00:05:00",1717861,15.24,313.5,1.158,0.587,23.9,108.4408,20.89,22.2,35.66,0,111,13.05,21.72,275.5
"2016-06-13 00:05:30",1717862,15.58,311.6,1.042,0.321,24.33,108.4041,20.8,22.1,36.54,0,111,13.05,21.62,273.6
"2016-06-13 00:06:00",1717863,15.44,309.7,1.922,0.744,13.56,108.3512,20.66,21.99,37.33,0,111,13.05,21.48,271.7
"2016-06-13 00:06:30",1717864,15.16,304.1,2.751,0.616,23.25,108.2937,20.51,21.87,37.9,0,111,13.05,21.34,266.1
"2016-06-13 00:07:00",1717865,14.02,301.9,3.223,0.48,10.12,108.2301,20.35,21.74,39.19,0,111,13.05,21.17,263.9
"2016-06-13 00:07:30",1717866,16.68,305.1,3.226,1.789,-3.136,108.166,20.19,21.64,38.08,0,111,13.05,21.01,267.1
"2016-06-13 00:08:00",1717867,17.71,306.5,3.1,0.954,23.63,108.1107,20.04,21.51,37.6,0,111,13.05,20.87,268.5
"2016-06-13 00:08:30",1717868,17.59,306.9,0.939,0.368,18.67,108.0578,19.91,21.36,37.9,0,111,13.05,20.73,268.9
"2016-06-13 00:09:00",1717869,18.25,305.6,0.824,0.235,24.18,108.0145,19.8,21.24,37.8,0,111,13.05,20.62,267.6
"2016-06-13 00:09:30",1717870,17.45,307.3,1.261,0.881,24.37,107.9799,19.71,21.14,37.92,0,111,13.06,20.53,269.3
"2016-06-13 00:10:00",1717871,15.61,306.8,2.361,0.666,8.72,107.9511,19.63,21.03,38.36,0,110.9,13.06,20.45,268.8
"2016-06-13 00:10:30",1717872,15.66,305.2,2.135,0.884,19.1,107.9266,19.57,20.93,39.25,0,110.9,13.06,20.39,267.2
"2016-06-13 00:11:00",1717873,16.23,304.5,3.104,0.365,24.49,107.909,19.53,20.84,39.29,0,110.9,13.06,20.35,266.5
"2016-06-13 00:11:30",1717874,16.95,299.4,0.612,0.616,-2.787,107.8853,19.47,20.77,41.16,0,110.9,13.06,20.29,261.4
"2016-06-13 00:12:00",1717875,17.74,299.3,2.138,0.615,-16.14,107.8544,19.39,20.69,40.5,0,110.9,13.06,20.21,261.3
"2016-06-13 00:12:30",1717876,17.86,299.8,2.667,0.482,-19.48,107.8274,19.32,20.61,40.3,0,110.9,13.06,20.14,261.8
"2016-06-13 00:13:00",1717877,16.88,298.2,3.159,0.562,23.61,107.7973,19.24,20.54,40.11,0,110.9,13.06,20.06,260.2
"2016-06-13 00:13:30",1717878,16.4,300.2,1.401,0.692,23.57,107.7821,19.2,20.48,40.4,0,110.9,13.07,20.02,262.2
"2016-06-13 00:14:00",1717879,17.1,302.5,1.978,0.632,15.96,107.7624,19.15,20.43,39.69,0,110.9,13.07,19.97,264.5
"2016-06-13 00:14:30",1717880,16.24,302.7,2.622,0.464,23.66,107.7604,19.15,20.36,39.85,0,110.9,13.07,19.96,264.7
"2016-06-13 00:15:00",1717881,16.43,292.1,5.057,0.778,22.75,107.7348,19.08,20.31,42.05,0,110.9,13.07,19.90,254.1
"2016-06-13 00:15:30",1717882,18.25,287,4.477,1.313,22.3,107.7207,19.04,20.28,44.09,0,110.9,13.07,19.86,249.0
"2016-06-13 00:16:00",1717883,18.02,282.6,4.986,0.82,19.18,107.6935,18.97,20.21,44.9,0,110.9,13.08,19.79,244.6
"2016-06-13 00:16:30",1717884,18.87,279.3,2.713,0.671,21.63,107.6385,18.83,20.15,45.69,0,110.9,13.08,19.65,241.3
"2016-06-13 00:17:00",1717885,19.05,275.5,2.522,1.145,22.43,107.5764,18.67,20.06,45.95,0,110.9,13.08,19.49,237.5
"2016-06-13 00:17:30",1717886,19.25,272.3,2.236,0.508,21.95,107.5052,18.49,19.93,46.2,0,110.9,13.08,19.31,234.3
"2016-06-13 00:18:00",1717887,16.91,272.7,5.296,1.256,-1.207,107.4333,18.31,19.78,46.13,0,110.8,13.08,19.12,234.7
"2016-06-13 00:18:30",1717888,17.53,270.6,1.413,0.554,20.79,107.3717,18.15,19.64,46.04,0,110.8,13.08,18.96,232.6
"2016-06-13 00:19:00",1717889,17.94,273.5,3.724,1.16,20.37,107.3205,18.02,19.52,46.03,0,110.8,13.09,18.83,235.5
"2016-06-13 00:19:30",1717890,15.92,271,3.656,0.946,20.21,107.2805,17.91,19.4,46.52,0,110.8,13.09,18.73,233.0
"2016-06-13 00:20:00",1717891,15.86,267.9,2.778,1.571,20.94,107.2428,17.82,19.28,46.8,0,110.8,13.09,18.63,229.9
"2016-06-13 00:20:30",1717892,15.94,276.9,6.68,1.292,18.51,107.2175,17.75,19.17,46.59,0,110.8,13.09,18.57,238.9
"2016-06-13 00:21:00",1717893,16.6,271.9,1.304,0.905,18.21,107.1919,17.69,19.08,46.65,0,110.8,13.09,18.50,233.9
"2016-06-13 00:21:30",1717894,18.63,271.3,1.522,0.544,23.86,107.1776,17.65,19,46.44,0,110.8,13.09,18.46,233.3
"2016-06-13 00:22:00",1717895,17.6,269.8,2.461,1.633,20.58,107.1621,17.61,18.93,46.32,0,110.8,13.09,18.42,231.8
"2016-06-13 00:22:30",1717896,17.42,273.6,2.397,0.871,15.4,107.1646,17.62,18.87,46.96,0,110.8,13.09,18.43,235.6
"2016-06-13 00:23:00",1717897,16.33,273.3,3.254,0.759,5.337,107.17,17.63,18.82,46,0,110.8,13.09,18.44,235.3
"2016-06-13 00:23:30",1717898,18.32,270.6,3.333,0.593,-26.63,107.1769,17.65,18.8,47,0,110.8,13.09,18.46,232.6
"2016-06-13 00:24:00",1717899,15,269.6,3.448,1.076,16.3,107.1955,17.7,18.79,45.86,0,110.8,13.09,18.51,231.6
"2016-06-13 00:24:30",1717900,16.61,272.2,2.102,1.074,20.42,107.2237,17.77,18.76,46.2,0,110.8,13.09,18.58,234.2
"2016-06-13 00:25:00",1717901,17.11,274.2,2.404,0.766,22.78,107.2273,17.78,18.76,46.7,0,110.8,13.1,18.59,236.2
"2016-06-13 00:25:30",1717902,14.34,273.3,2.312,0.656,23.35,107.2394,17.81,18.76,46.35,0,110.8,13.09,18.62,235.3
"2016-06-13 00:26:00",1717903,16.24,273.8,1.233,0.478,20.19,107.2605,17.86,18.78,46.42,0,110.8,13.09,18.68,235.8
"2016-06-13 00:26:30",1717904,15.9,277.7,2.564,0.644,22.77,107.2675,17.88,18.78,46.13,0,110.8,13.09,18.70,239.7
"2016-06-13 00:27:00",1717905,14.68,277.6,1.797,0.56,22.65,107.2926,17.95,18.81,45.57,0,110.8,13.09,18.76,239.6
"2016-06-13 00:27:30",1717906,17.37,275.9,2.077,0.968,22.34,107.3106,17.99,18.83,46.09,0,110.8,13.09,18.81,237.9
"2016-06-13 00:28:00",1717907,17.18,274.6,2.243,0.464,23.08,107.3286,18.04,18.87,46.33,0,110.8,13.09,18.85,236.6
"2016-06-13 00:28:30",1717908,16.57,274.7,2.379,0.464,18.36,107.3469,18.08,18.92,46.03,0,110.8,13.09,18.90,236.7
"2016-06-13 00:29:00",1717909,17.2,274.9,1.669,0.656,8.42,107.3643,18.13,18.95,45.31,0,110.8,13.09,18.94,236.9
"2016-06-13 00:29:30",1717910,17.79,278.9,2.664,0.905,11.74,107.3919,18.2,18.97,45.93,0,110.8,13.09,19.02,240.9
"2016-06-13 00:30:00",1717911,17.11,280,2.359,0.85,11.64,107.399,18.22,19.03,45.34,0,110.8,13.09,19.03,242.0
"2016-06-13 00:30:30",1717912,14.95,284.1,3.372,0.952,11.95,107.4266,18.29,19.07,44.18,0,110.8,13.09,19.10,246.1
"2016-06-13 00:31:00",1717913,12.98,283.3,3.236,0.595,25.77,107.4647,18.39,19.13,43.56,0,110.8,13.1,19.20,245.3
"2016-06-13 00:31:30",1717914,13.27,279.4,4.386,1.435,17.08,107.5028,18.48,19.18,43.98,0,110.7,13.09,19.30,241.4
"2016-06-13 00:32:00",1717915,15.96,282.5,2.168,0.769,17.25,107.5421,18.59,19.25,43.75,0,110.8,13.1,19.40,244.5
"2016-06-13 00:32:30",1717916,16.65,283.1,2.275,1.65,14.81,107.5741,18.67,19.32,43.51,0,110.8,13.1,19.48,245.1
"2016-06-13 00:33:00",1717917,16.59,283,2.727,0.516,17.19,107.6088,18.76,19.39,43.15,0,110.8,13.1,19.57,245.0
"2016-06-13 00:33:30",1717918,16.93,281.9,1.384,0.334,14.5,107.6365,18.83,19.47,42.98,0,110.8,13.11,19.64,243.9
"2016-06-13 00:34:00",1717919,16.34,282.6,2.215,0.514,14.19,107.6632,18.9,19.53,43.21,0,110.8,13.11,19.71,244.6
"2016-06-13 00:34:30",1717920,16.71,285.3,1.488,0.53,21.8,107.6775,18.93,19.61,43.07,0,110.8,13.1,19.75,247.3
"2016-06-13 00:35:00",1717921,16.33,286.5,2.791,0.435,22.26,107.6971,18.98,19.65,42.14,0,110.8,13.1,19.80,248.5
"2016-06-13 00:35:30",1717922,15.38,292.2,1.446,0.454,25.32,107.7037,19,19.71,41.62,0,110.8,13.11,19.82,254.2
"2016-06-13 00:36:00",1717923,14.43,289.9,1.729,0.453,22.5,107.7351,19.08,19.74,41.38,0,110.8,13.11,19.90,251.9
"2016-06-13 00:36:30",1717924,13.67,291.4,3.21,0.466,17.43,107.7506,19.12,19.8,40.89,0,110.8,13.11,19.94,253.4
"2016-06-13 00:37:00",1717925,14.88,292,3.029,0.797,19.68,107.7759,19.18,19.86,40.68,0,110.8,13.1,20.00,254.0
"2016-06-13 00:37:30",1717926,14.64,297.2,5.397,0.688,24.76,107.806,19.26,19.92,40.15,0,110.8,13.11,20.08,259.2
"2016-06-13 00:38:00",1717927,15.06,290.5,2.234,0.514,18.99,107.837,19.34,19.99,40.47,0,110.8,13.1,20.16,252.5
"2016-06-13 00:38:30",1717928,14.79,293.1,1.665,0.414,24.73,107.8651,19.41,20.07,39.58,0,110.8,13.11,20.23,255.1
"2016-06-13 00:39:00",1717929,14.65,287.9,1.562,0.34,23.62,107.8958,19.49,20.12,39.68,0,110.8,13.11,20.31,249.9
"2016-06-13 00:39:30",1717930,15.48,296.6,6.354,2.046,23.5,107.9245,19.57,20.2,39.39,0,110.8,13.1,20.39,258.6
"2016-06-13 00:40:00",1717931,16.57,294.4,1.144,0.821,22.14,107.9465,19.62,20.29,39.5,0,110.8,13.11,20.44,256.4
"2016-06-13 00:40:30",1717932,15.56,292.2,1.341,0.697,22.19,107.971,19.69,20.35,39.41,0,110.8,13.11,20.51,254.2
"2016-06-13 00:41:00",1717933,14.87,294.1,1.257,0.217,22.85,107.973,19.69,20.4,38.72,0,110.8,13.11,20.51,256.1
"2016-06-13 00:41:30",1717934,16.6,295.5,0.593,0.589,22.88,107.9949,19.75,20.44,38.73,0,110.8,13.11,20.57,257.5
"2016-06-13 00:42:00",1717935,16.85,295.5,0.699,0.16,22.71,108.0093,19.78,20.51,38.7,0,110.8,13.11,20.60,257.5
"2016-06-13 00:42:30",1717936,16.53,290.2,3.608,1.181,21.27,108.0383,19.86,20.56,39.58,0,110.8,13.11,20.68,252.2
"2016-06-13 00:43:00",1717937,17.15,287.6,2.711,0.662,21.15,108.0307,19.84,20.62,41.22,0,110.8,13.1,20.66,249.6
"2016-06-13 00:43:30",1717938,18.72,289.4,3.872,0.698,21.97,108.0076,19.78,20.62,38.93,0,110.8,13.1,20.60,251.4
"2016-06-13 00:44:00",1717939,18.3,286.2,1.575,0.315,22.7,107.9938,19.74,20.61,38.39,0,110.8,13.1,20.56,248.2
"2016-06-13 00:44:30",1717940,16.51,291.7,1.808,0.389,23.12,107.973,19.69,20.62,38.09,0,110.8,13.1,20.51,253.7
"2016-06-13 00:45:00",1717941,16.15,292.7,1.753,0.516,23.7,107.973,19.69,20.59,38.03,0,110.8,13.1,20.51,254.7
"2016-06-13 00:45:30",1717942,14.8,293.1,1.907,0.701,23.72,107.973,19.69,20.59,38.14,0,110.8,13.1,20.51,255.1
"2016-06-13 00:46:00",1717943,14.31,292.8,0.702,0.216,21.24,107.9797,19.71,20.61,38.01,0,110.8,13.1,20.53,254.8
"2016-06-13 00:46:30",1717944,14.83,295.1,0.871,0.34,23.93,108.0056,19.77,20.61,37.95,0,110.8,13.1,20.60,257.1
"2016-06-13 00:47:00",1717945,15.26,296.8,0.918,0.201,24.04,108.0101,19.79,20.65,38.32,0,110.8,13.1,20.61,258.8
"2016-06-13 00:47:30",1717946,15.46,297.7,1.814,0.373,21.68,108.0372,19.85,20.68,38.38,0,110.8,13.1,20.68,259.7
"2016-06-13 00:48:00",1717947,15.6,299,0.971,0.248,24.25,108.0445,19.87,20.7,37.13,0,110.8,13.1,20.70,261.0
"2016-06-13 00:48:30",1717948,14.86,301.5,1.145,0.35,24.27,108.0726,19.95,20.73,37.11,0,110.8,13.1,20.77,263.5
"2016-06-13 00:49:00",1717949,14.94,300.2,1.443,0.314,24.44,108.0921,20,20.78,36.98,0,110.8,13.1,20.82,262.2
"2016-06-13 00:49:30",1717950,14.99,297.5,2.6,0.303,21.27,108.1109,20.04,20.82,36.55,0,110.8,13.1,20.87,259.5
"2016-06-13 00:50:00",1717951,14.05,296.6,2.434,0.513,23.76,108.1399,20.12,20.86,36.6,0,110.8,13.11,20.94,258.6
"2016-06-13 00:50:30",1717952,13.64,298.8,2.041,0.336,21.42,108.1534,20.15,20.92,36.9,0,110.8,13.11,20.98,260.8
"2016-06-13 00:51:00",1717953,14.12,303.3,3.223,0.49,24.62,108.1754,20.21,20.96,36.83,0,110.8,13.11,21.03,265.3
"2016-06-13 00:51:30",1717954,13.38,303.2,2.819,0.422,24.61,108.1965,20.26,21.01,36.62,0,110.8,13.11,21.09,265.2
"2016-06-13 00:52:00",1717955,13.87,304.1,2.08,0.75,24.32,108.2131,20.31,21.06,36.21,0,110.8,13.11,21.13,266.1
"2016-06-13 00:52:30",1717956,14.69,297.7,2.981,0.706,21.91,108.2404,20.38,21.1,35.65,0,110.8,13.11,21.20,259.7
"2016-06-13 00:53:00",1717957,14.16,298.3,2.485,0.572,6.373,108.2506,20.4,21.16,35.54,0,110.8,13.11,21.23,260.3
"2016-06-13 00:53:30",1717958,13.6,295.3,2.38,0.597,4.748,108.2765,20.47,21.22,35.15,0,110.8,13.11,21.29,257.3
"2016-06-13 00:54:00",1717959,12.84,291.7,2.522,0.414,8.4,108.2841,20.49,21.23,34.92,0,110.8,13.11,21.31,253.7
"2016-06-13 00:54:30",1717960,14.4,295.4,1.181,0.779,16.26,108.3108,20.56,21.3,35.29,0,110.8,13.11,21.38,257.4
"2016-06-13 00:55:00",1717961,14.5,297.6,1.558,1.078,6.159,108.3162,20.57,21.34,35.23,0,110.8,13.11,21.39,259.6
"2016-06-13 00:55:30",1717962,14.83,299.1,2.87,0.831,20.91,108.3415,20.64,21.37,35.26,0,110.8,13.11,21.46,261.1
"2016-06-13 00:56:00",1717963,14.38,303.7,3.144,0.796,23.37,108.3446,20.64,21.42,35.1,0,110.8,13.11,21.47,265.7
"2016-06-13 00:56:30",1717964,15.44,302,1.659,0.436,23.27,108.3446,20.64,21.44,34.94,0,110.8,13.11,21.47,264.0
"2016-06-13 00:57:00",1717965,15.22,306.3,2.954,0.545,23.92,108.3446,20.64,21.46,34.44,0,110.8,13.11,21.47,268.3
"2016-06-13 00:57:30",1717966,13.77,307.5,2.023,0.299,22.13,108.3446,20.64,21.48,33.76,0,110.8,13.11,21.47,269.5
"2016-06-13 00:58:00",1717967,13.59,306.2,2.005,0.644,22.93,108.3446,20.64,21.48,33.65,0,110.8,13.11,21.47,268.2
"2016-06-13 00:58:30",1717968,11.23,306,2.691,0.647,23.04,108.3446,20.64,21.5,33.93,0,110.8,13.11,21.47,268.0
"2016-06-13 00:59:00",1717969,11.55,303.5,3.573,0.871,22.84,108.3446,20.64,21.51,33.73,0,110.8,13.11,21.47,265.5
"2016-06-13 00:59:30",1717970,12.92,309.1,3.27,0.975,22.65,108.3457,20.65,21.52,32.87,0,110.8,13.11,21.47,271.1
"2016-06-13 01:00:00",1717971,10.6,312.4,3.289,0.568,20.29,108.3618,20.69,21.55,32.83,0,110.8,13.11,21.51,274.4
"2016-06-13 01:00:30",1717972,10.52,314.7,4.334,0.636,-10.02,108.3778,20.73,21.58,33.35,0,110.8,13.1,21.55,276.7
"2016-06-13 01:01:00",1717973,10.61,319.1,1.893,0.26,13.12,108.3784,20.73,21.59,33.43,0,110.8,13.1,21.55,281.1
"2016-06-13 01:01:30",1717974,11.61,321.5,1.699,0.409,-3.694,108.3784,20.73,21.61,33.3,0,110.8,13.1,21.55,283.5
"2016-06-13 01:02:00",1717975,12.03,321.6,1.136,0.325,10.14,108.3784,20.73,21.62,33.27,0,110.8,13.1,21.55,283.6
"2016-06-13 01:02:30",1717976,11.66,318.2,2.166,0.368,18.66,108.3784,20.73,21.63,33.4,0,110.8,13.1,21.55,280.2
"2016-06-13 01:03:00",1717977,11.79,316.1,1.663,0.81,26.81,108.3632,20.69,21.64,33.3,0,110.8,13.1,21.52,278.1
"2016-06-13 01:03:30",1717978,11.95,316.6,1.972,0.491,26.11,108.3449,20.64,21.63,33.17,0,110.8,13.1,21.47,278.6
"2016-06-13 01:04:00",1717979,11.54,315.3,2.238,0.339,-4.637,108.3446,20.64,21.62,32.97,0,110.8,13.1,21.47,277.3
"2016-06-13 01:04:30",1717980,10.78,318.4,2.06,0.259,-16.1,108.3342,20.62,21.6,32.88,0,110.8,13.1,21.44,280.4
"2016-06-13 01:05:00",1717981,9.86,323.4,2.349,0.402,17.89,108.3126,20.56,21.6,33.08,0,110.8,13.11,21.39,285.4
"2016-06-13 01:05:30",1717982,9.99,324.9,2.723,0.683,20.27,108.3157,20.57,21.57,33.12,0,110.8,13.11,21.39,286.9
"2016-06-13 01:06:00",1717983,8.19,325.2,3.522,0.517,20.33,108.32,20.58,21.56,32.92,0,110.8,13.11,21.40,287.2
"2016-06-13 01:06:30",1717984,9.43,329.8,3.145,0.916,25.56,108.3177,20.57,21.56,33.1,0,110.8,13.11,21.40,291.8
"2016-06-13 01:07:00",1717985,9.95,325.2,3.38,0.644,22.24,108.3016,20.53,21.55,32.99,0,110.8,13.11,21.36,287.2
"2016-06-13 01:07:30",1717986,9.91,326.5,3.475,0.545,2.832,108.2965,20.52,21.53,32.63,0,110.8,13.11,21.34,288.5
"2016-06-13 01:08:00",1717987,10.31,319.8,7.991,1.017,25.01,108.302,20.53,21.52,31.49,0,110.8,13.11,21.36,281.8
"2016-06-13 01:08:30",1717988,8.84,311,7.709,1.435,24.83,108.3072,20.55,21.52,32.17,0,110.8,13.11,21.37,273.0
"2016-06-13 01:09:00",1717989,8.19,327.8,9.75,0.751,24.94,108.3097,20.55,21.51,32.26,0,110.8,13.11,21.38,289.8
"2016-06-13 01:09:30",1717990,8.37,334.1,2.141,0.482,24.73,108.3127,20.56,21.51,32.42,0,110.8,13.11,21.39,296.1
"2016-06-13 01:10:00",1717991,8.52,336.7,2.941,0.537,24.79,108.3133,20.56,21.5,32.72,0,110.8,13.12,21.39,298.7
"2016-06-13 01:10:30",1717992,8.58,339.4,5.987,0.657,24.97,108.3136,20.56,21.48,32.59,0,110.8,13.11,21.39,301.4
"2016-06-13 01:11:00",1717993,10.2,345.9,3.752,0.991,24.87,108.3094,20.55,21.48,32.54,0,110.8,13.11,21.38,307.9
"2016-06-13 01:11:30",1717994,9.83,342.7,3.319,0.528,24.58,108.2936,20.51,21.48,32.77,0,110.8,13.12,21.34,304.7
"2016-06-13 01:12:00",1717995,9.35,344.3,2.431,0.425,24.46,108.2798,20.48,21.46,32.72,0,110.8,13.12,21.30,306.3
"2016-06-13 01:12:30",1717996,9.25,348.7,3.37,0.914,24.26,108.2798,20.48,21.48,33.04,0,110.8,13.12,21.30,310.7
"2016-06-13 01:13:00",1717997,7.645,350.6,3.19,0.688,24.21,108.2773,20.47,21.45,33.1,0,110.8,13.12,21.29,312.6
"2016-06-13 01:13:30",1717998,8.58,350.2,2.403,0.433,24.52,108.2579,20.42,21.44,33.17,0,110.8,13.12,21.24,312.2
"2016-06-13 01:14:00",1717999,8.97,348.7,2.359,0.424,24.32,108.246,20.39,21.41,33.2,0,110.8,13.12,21.21,310.7
"2016-06-13 01:14:30",1718000,8.65,346,2.567,0.193,23.99,108.2435,20.38,21.4,33.68,0,110.8,13.12,21.21,308.0
"2016-06-13 01:15:00",1718001,8.65,340.1,4.326,0.3,23.94,108.2212,20.33,21.36,33.97,0,110.8,13.12,21.15,302.1
"2016-06-13 01:15:30",1718002,9.51,337.3,3.444,0.561,23.67,108.2122,20.3,21.35,34.41,0,110.8,13.12,21.13,299.3
"2016-06-13 01:16:00",1718003,10.45,329.5,1.525,0.299,23.33,108.2012,20.28,21.32,34.6,0,110.8,13.12,21.10,291.5
"2016-06-13 01:16:30",1718004,9.89,329.5,1.684,0.156,23.14,108.1796,20.22,21.3,35.22,0,110.8,13.13,21.04,291.5
"2016-06-13 01:17:00",1718005,9.99,324.3,3.808,0.251,23.27,108.1663,20.19,21.26,35.41,0,110.8,13.12,21.01,286.3
"2016-06-13 01:17:30",1718006,10.18,319.6,1.223,0.133,23.56,108.1446,20.13,21.23,35.5,0,110.8,13.12,20.95,281.6
"2016-06-13 01:18:00",1718007,9.99,320.7,1.53,0.202,23.55,108.1252,20.08,21.2,35.61,0,110.8,13.11,20.90,282.7
"2016-06-13 01:18:30",1718008,10.61,329.4,6.461,0.487,23.56,108.1097,20.04,21.15,35.41,0,110.8,13.11,20.86,291.4
"2016-06-13 01:19:00",1718009,10.93,340.7,1.73,0.31,23.63,108.0852,19.98,21.11,34.63,0,110.8,13.11,20.80,302.7
"2016-06-13 01:19:30",1718010,11.05,342.5,2.703,0.336,23.62,108.077,19.96,21.07,34.37,0,110.8,13.11,20.78,304.5
"2016-06-13 01:20:00",1718011,11.22,342.6,3.508,0.452,23.72,108.0692,19.94,21.03,34.31,0,110.8,13.11,20.76,304.6
"2016-06-13 01:20:30",1718012,9.62,350.6,3.419,0.618,23.68,108.0509,19.89,20.99,34.43,0,110.8,13.11,20.71,312.6
"2016-06-13 01:21:00",1718013,9.35,352.9,2.011,0.829,23.7,108.0486,19.88,20.98,34.27,0,110.8,13.11,20.71,314.9
"2016-06-13 01:21:30",1718014,7.81,356,2.45,1.251,23.34,108.054,19.9,20.97,34.39,0,110.8,13.12,20.72,318.0
"2016-06-13 01:22:00",1718015,6.594,356.8,1.853,0.869,23.09,108.0669,19.93,20.96,34.74,0,110.8,13.12,20.75,318.8
"2016-06-13 01:22:30",1718016,7.866,354.8,2.898,1.077,23.11,108.0745,19.95,20.97,34.58,0,110.8,13.12,20.77,316.8
"2016-06-13 01:23:00",1718017,6.472,6.696,3.506,1.128,23.1,108.077,19.96,20.96,35,0,110.8,13.12,20.78,328.7
"2016-06-13 01:23:30",1718018,5.01,12.77,5.179,1.198,22.91,108.077,19.96,20.96,35.4,0,110.8,13.12,20.78,334.8
"2016-06-13 01:24:00",1718019,6.369,14.31,5.462,1.724,22.55,108.077,19.96,20.97,35.91,0,110.8,13.13,20.78,336.3
"2016-06-13 01:24:30",1718020,5.319,18.22,4.652,1.447,22.43,108.077,19.96,20.98,36.27,0,110.8,13.13,20.78,340.2
"2016-06-13 01:25:00",1718021,4.326,15.08,4.813,0.879,22.56,108.0768,19.96,20.94,36.58,0,110.8,13.13,20.78,337.1
"2016-06-13 01:25:30",1718022,5.601,16.8,6.266,0.683,22.24,108.0731,19.95,20.97,36.06,0,110.8,13.13,20.77,338.8
"2016-06-13 01:26:00",1718023,6.359,16.86,2.313,0.912,22.69,108.0666,19.93,20.94,36.01,0,110.8,13.13,20.75,338.9
"2016-06-13 01:26:30",1718024,5.201,23.5,5.872,0.725,22.32,108.0571,19.91,20.94,35.44,0,110.8,13.13,20.73,345.5
"2016-06-13 01:27:00",1718025,5.071,25.89,2.436,0.427,21.75,108.0503,19.89,20.95,37.27,0,110.8,13.13,20.71,347.9
"2016-06-13 01:27:30",1718026,5.669,29.32,1.991,0.447,21.56,108.0483,19.88,20.95,37.69,0,110.8,13.13,20.70,351.3
"2016-06-13 01:28:00",1718027,6.145,27.41,3.385,0.463,21.43,108.0452,19.88,20.94,37.83,0,110.8,13.13,20.70,349.4
"2016-06-13 01:28:30",1718028,6.233,26.19,3.916,0.509,21.65,108.0433,19.87,20.92,37.16,0,110.8,13.13,20.69,348.2
"2016-06-13 01:29:00",1718029,6.345,31.28,3.804,0.497,21.17,108.0433,19.87,20.92,38.75,0,110.8,13.13,20.69,353.3
"2016-06-13 01:29:30",1718030,6.938,35.13,6.064,1.401,21.35,108.0433,19.87,20.91,38.15,0,110.8,13.13,20.69,357.1
"2016-06-13 01:30:00",1718031,9.84,40.85,1.713,0.804,20.81,108.0255,19.83,20.91,39.71,0,110.8,13.13,20.65,2.8
"2016-06-13 01:30:30",1718032,10.12,40.69,0.897,0.388,20.81,108.0055,19.77,20.87,40.13,0,110.8,13.12,20.59,2.7
"2016-06-13 01:31:00",1718033,9.41,38.92,2.937,0.965,20.37,107.9737,19.69,20.84,41.57,0,110.8,13.12,20.51,0.9
"2016-06-13 01:31:30",1718034,9.45,54.86,5.979,0.604,19.37,107.9402,19.61,20.8,46.31,0,110.8,13.12,20.43,16.9
"2016-06-13 01:32:00",1718035,11.15,61.85,3.438,0.456,19.28,107.9064,19.52,20.77,49.65,0,110.8,13.12,20.34,23.8
"2016-06-13 01:32:30",1718036,10.43,63.42,3.023,0.602,19.47,107.8633,19.41,20.7,50.21,0,110.8,13.12,20.23,25.4
"2016-06-13 01:33:00",1718037,9.89,60.87,2.542,0.444,19.75,107.8211,19.3,20.63,50.15,0,110.8,13.12,20.12,22.9
"2016-06-13 01:33:30",1718038,10.67,60.98,2.312,0.388,19.89,107.7664,19.16,20.56,50.03,0,110.8,13.12,19.98,23.0
"2016-06-13 01:34:00",1718039,9.12,60.9,2.496,0.678,20.01,107.7188,19.04,20.44,50.07,0,110.8,13.11,19.86,22.9
"2016-06-13 01:34:30",1718040,7.819,57.62,2.038,0.471,20.26,107.6653,18.9,20.33,49.83,0,110.8,13.11,19.72,19.6
"2016-06-13 01:35:00",1718041,8.5,57.82,4.892,0.594,20.03,107.6197,18.78,20.23,50.15,0,110.8,13.11,19.60,19.8
"2016-06-13 01:35:30",1718042,8.81,64.56,2.344,0.245,20.12,107.5791,18.68,20.13,50.73,0,110.8,13.11,19.50,26.6
"2016-06-13 01:36:00",1718043,8.2,60.72,1.845,0.519,20.15,107.5349,18.57,20.03,50.96,0,110.8,13.11,19.38,22.7
"2016-06-13 01:36:30",1718044,8.72,65.02,4.567,0.435,20.11,107.4932,18.46,19.93,51.4,0,110.8,13.11,19.28,27.0
"2016-06-13 01:37:00",1718045,9.05,65.43,1.921,0.184,20.13,107.4589,18.37,19.85,51.79,0,110.8,13.11,19.19,27.4
"2016-06-13 01:37:30",1718046,8.13,66.45,3.37,0.691,19.83,107.4228,18.28,19.75,52.86,0,110.8,13.11,19.10,28.4
"2016-06-13 01:38:00",1718047,7.58,70.23,5.094,0.362,19.72,107.3916,18.2,19.65,54.33,0,110.8,13.11,19.01,32.2
"2016-06-13 01:38:30",1718048,7.76,72.33,3.131,0.394,19.74,107.3567,18.11,19.57,55.15,0,110.8,13.11,18.92,34.3
"2016-06-13 01:39:00",1718049,8.24,70.82,2.724,0.55,19.9,107.3248,18.03,19.49,55.13,0,110.8,13.11,18.84,32.8
"2016-06-13 01:39:30",1718050,8.68,72.56,3.745,0.39,19.97,107.2891,17.94,19.39,55.39,0,110.8,13.12,18.75,34.6
"2016-06-13 01:40:00",1718051,8.34,72.77,4.058,0.413,19.94,107.2544,17.85,19.31,55.59,0,110.8,13.12,18.66,34.8
"2016-06-13 01:40:30",1718052,8.05,68.53,3.812,0.336,20.2,107.2251,17.77,19.23,55.25,0,110.8,13.12,18.59,30.5
"2016-06-13 01:41:00",1718053,8.14,71.57,5.988,0.224,20.37,107.197,17.7,19.15,54.58,0,110.8,13.12,18.51,33.6
"2016-06-13 01:41:30",1718054,7.698,74.05,4.888,0.591,20.29,107.1688,17.63,19.05,54.93,0,110.8,13.13,18.44,36.1
"2016-06-13 01:42:00",1718055,8.04,70.77,3.165,0.438,20.09,107.1474,17.57,18.99,55.72,0,110.8,13.13,18.39,32.8
"2016-06-13 01:42:30",1718056,8.93,70.58,1.653,0.392,20.03,107.1305,17.53,18.92,56.31,0,110.8,13.13,18.34,32.6
"2016-06-13 01:43:00",1718057,9.19,73.85,1.536,0.254,20.19,107.1049,17.46,18.85,56.68,0,110.8,13.13,18.28,35.8
"2016-06-13 01:43:30",1718058,9.26,69.97,2.066,0.308,20.6,107.0953,17.44,18.79,55.37,0,110.8,13.13,18.25,32.0
"2016-06-13 01:44:00",1718059,9.17,70.41,1.491,0.235,20.65,107.0702,17.38,18.71,55.15,0,110.8,13.13,18.19,32.4
"2016-06-13 01:44:30",1718060,9.08,72.02,1.355,0.197,20.47,107.0632,17.36,18.68,54.97,0,110.8,13.13,18.17,34.0
"2016-06-13 01:45:00",1718061,9.39,73.77,1.202,0.17,20.57,107.0632,17.36,18.63,55.25,0,110.8,13.13,18.17,35.8
"2016-06-13 01:45:30",1718062,9.51,78.93,1.402,0.409,20.37,107.0629,17.36,18.58,55.47,0,110.8,13.13,18.17,40.9
"2016-06-13 01:46:00",1718063,10.16,78.21,1.884,0.314,20.59,107.0581,17.34,18.55,55.24,0,110.8,13.13,18.16,40.2
"2016-06-13 01:46:30",1718064,9.92,80.9,1.787,0.264,20.27,107.053,17.33,18.51,55.76,0,110.8,13.13,18.14,42.9
"2016-06-13 01:47:00",1718065,9.68,78.71,1.49,0.39,20.64,107.0527,17.33,18.48,55.14,0,110.8,13.13,18.14,40.7